[ hide orbit diagram ]
For accurate long-term ephemerides, please instead use our Horizons system.This orbit viewer was implemented using two-body methods, and hence should not be used for determining accurate long-term trajectories (over several years or decades) or planetary encounter circumstances.
Orbital Elements at Epoch 2459000.5 (2020-May-31.0) TDB
Reference: JPL 29 (heliocentric ecliptic J2000)
Element | Value | Uncertainty (1-sigma) | Units |
e | .1289584641936855 | 3.3624e-08 | |
a | 2.716977490504572 | 1.5684e-08 | au |
q | 2.366600246080289 | 9.1462e-08 | au |
i | 11.03265914802212 | 3.8562e-06 | deg |
node | 147.5664945164391 | 2.0993e-05 | deg |
peri | 182.2163051816015 | 2.631e-05 | deg |
M | 133.3679507180117 | 1.5882e-05 | deg |
tp | 2458394.494640977803 (2018-Oct-02.99464098) | 7.1556e-05 | TDB |
period | 1635.789768632379 4.48 | 1.4164e-05 3.878e-08 | d yr |
n | .2200771803952424 | 1.9056e-09 | deg/d |
Q | 3.067354734928855 | 1.7706e-08 | au |
|
| | Orbit Determination Parameters
Additional Information
|
[ hide covariance matrix ]
Orbital Elements at Epoch 2457104.5 (2015-Mar-23.0) TDB
Reference: JPL 29 (heliocentric ecliptic J2000)
Element | Value | Uncertainty (1-sigma) | Units |
e | .1308113243972246 | 3.3872e-08 | |
q | 2.359765383942721 | 9.2268e-08 | au |
tp | 2456755.465170384647 (2014-Apr-07.96517038) | 6.9905e-05 | TDB |
node | 147.6678948111263 | 2.0949e-05 | deg |
peri | 181.3285109461277 | 2.6071e-05 | deg |
i | 11.04680320839623 | 3.8618e-06 | deg |
|
| | Orbit Determination Parameters
Additional Information
|
Orbit Covariance (6×6)
|
|
e |
q |
tp |
node |
peri |
i |
e |
1.147281108702852E-15 |
-3.091557012733975E-15 |
2.301233402139294E-13 |
2.034673895592417E-15 |
3.265774910322345E-14 |
-7.685524718532799E-16 |
q |
-3.091557012733975E-15 |
8.513415750800361E-15 |
-7.273872990077792E-13 |
-6.647849581512751E-15 |
-1.017151449859664E-13 |
2.342715679194865E-15 |
tp |
2.301233402139294E-13 |
-7.273872990077792E-13 |
4.886675873535273E-9 |
5.60649205337566E-12 |
1.10210255583245E-9 |
-2.350498415779537E-12 |
node |
2.034673895592417E-15 |
-6.647849581512751E-15 |
5.60649205337566E-12 |
4.388531220703776E-10 |
-4.292453901074049E-10 |
7.812410090133925E-12 |
peri |
3.265774910322345E-14 |
-1.017151449859664E-13 |
1.10210255583245E-9 |
-4.292453901074049E-10 |
6.796773565044636E-10 |
-8.206310077516915E-12 |
i |
-7.685524718532799E-16 |
2.342715679194865E-15 |
-2.350498415779537E-12 |
7.812410090133925E-12 |
-8.206310077516915E-12 |
1.491341518517186E-11 |
|
Physical Parameter Table
Parameter |
Symbol |
Value |
Units |
Sigma |
Reference |
Notes |
absolute magnitude |
H |
15.0 |
|
n/a |
MPO453333 |
|
|
89664 Pignata | Discovered 2001 Dec. 19 by the Asiago-DLR Asteroid Survey at Cima Ekar. |
Giuliano Pignata (b. 1972), a member of the Asiago-DLR Asteroid Survey, contributes in a decisive way to the calibration and adaptation of the CCD detector to the telescope. His main research interest is now supernovae, but he still searches for minor planets in supernova survey images. |
NOTE: some special characters may not display properly (any characters within {} are an attempt to place the proper accent above a character) |
Reference: 20070106/MPCPages.arc | Last Updated: 2007-01-09 |
|
|